Year,Month,Day,Hour,Minute,Value (Times are PST for temperature in C)
2015,07,02,00,00,20.30
2015,07,02,00,01,20.30
2015,07,02,00,02,20.30
2015,07,02,00,03,20.30
2015,07,02,00,04,20.30
2015,07,02,00,05,20.30
2015,07,02,00,06,20.30
2015,07,02,00,07,20.30
2015,07,02,00,08,20.30
2015,07,02,00,09,20.30
2015,07,02,00,10,20.30
2015,07,02,00,11,20.30
2015,07,02,00,12,20.30
2015,07,02,00,13,20.30
2015,07,02,00,14,20.30
2015,07,02,00,15,20.30
2015,07,02,00,16,20.30
2015,07,02,00,17,20.20
2015,07,02,00,18,20.20
2015,07,02,00,19,20.20
2015,07,02,00,20,20.20
2015,07,02,00,21,20.20
2015,07,02,00,22,20.10
2015,07,02,00,23,20.10
2015,07,02,00,24,20.00
2015,07,02,00,25,20.00
2015,07,02,00,26,20.00
2015,07,02,00,27,19.90
2015,07,02,00,28,19.90
2015,07,02,00,29,19.90
2015,07,02,00,30,19.90
2015,07,02,00,31,19.90
2015,07,02,00,32,19.90
2015,07,02,00,33,19.90
2015,07,02,00,34,19.80
2015,07,02,00,35,19.80
2015,07,02,00,36,19.80
2015,07,02,00,37,19.80
2015,07,02,00,38,19.70
2015,07,02,00,39,19.70
2015,07,02,00,40,19.70
2015,07,02,00,41,19.70
2015,07,02,00,42,19.70
2015,07,02,00,43,19.70
2015,07,02,00,44,19.60
2015,07,02,00,45,19.60
2015,07,02,00,46,19.60
2015,07,02,00,47,19.60
2015,07,02,00,48,19.50
2015,07,02,00,49,19.50
2015,07,02,00,50,19.50
2015,07,02,00,51,19.50
2015,07,02,00,52,19.50
2015,07,02,00,53,19.40
2015,07,02,00,54,19.40
2015,07,02,00,55,19.40
2015,07,02,00,56,19.40
2015,07,02,00,57,19.40
2015,07,02,00,58,19.40
2015,07,02,00,59,19.40
2015,07,02,01,00,19.50
2015,07,02,01,01,19.50
2015,07,02,01,02,19.50
2015,07,02,01,03,19.50
2015,07,02,01,04,19.60
2015,07,02,01,05,19.60
2015,07,02,01,06,19.60
2015,07,02,01,07,19.60
2015,07,02,01,08,19.60
2015,07,02,01,09,19.60
2015,07,02,01,10,19.60
2015,07,02,01,11,19.60
2015,07,02,01,12,19.60
2015,07,02,01,13,19.50
2015,07,02,01,14,19.50
2015,07,02,01,15,19.50
2015,07,02,01,16,19.40
2015,07,02,01,17,19.40
2015,07,02,01,18,19.40
2015,07,02,01,19,19.40
2015,07,02,01,20,19.40
2015,07,02,01,21,19.50
2015,07,02,01,22,19.50
2015,07,02,01,23,19.50
2015,07,02,01,24,19.40
2015,07,02,01,25,19.40
2015,07,02,01,26,19.40
2015,07,02,01,27,19.40
2015,07,02,01,28,19.40
2015,07,02,01,29,19.40
2015,07,02,01,30,19.40
2015,07,02,01,31,19.30
2015,07,02,01,32,19.30
2015,07,02,01,33,19.30
2015,07,02,01,34,19.30
2015,07,02,01,35,19.30
2015,07,02,01,36,19.30
2015,07,02,01,37,19.30
2015,07,02,01,38,19.30
2015,07,02,01,39,19.30
2015,07,02,01,40,19.20
2015,07,02,01,41,19.20
2015,07,02,01,42,19.20
2015,07,02,01,43,19.20
2015,07,02,01,44,19.20
2015,07,02,01,45,19.20
2015,07,02,01,46,19.10
2015,07,02,01,47,19.10
2015,07,02,01,48,19.10
2015,07,02,01,49,19.10
2015,07,02,01,50,19.10
2015,07,02,01,51,19.10
2015,07,02,01,52,19.10
2015,07,02,01,53,19.10
2015,07,02,01,54,19.00
2015,07,02,01,55,19.00
2015,07,02,01,56,19.00
2015,07,02,01,57,19.00
2015,07,02,01,58,19.00
2015,07,02,01,59,19.00
2015,07,02,02,00,19.00
2015,07,02,02,01,18.90
2015,07,02,02,02,18.90
2015,07,02,02,03,18.90
2015,07,02,02,04,18.90
2015,07,02,02,05,18.90
2015,07,02,02,06,18.90
2015,07,02,02,07,18.90
2015,07,02,02,08,18.90
2015,07,02,02,09,18.90
2015,07,02,02,10,18.90
2015,07,02,02,11,18.90
2015,07,02,02,12,18.90
2015,07,02,02,13,18.90
2015,07,02,02,14,18.90
2015,07,02,02,15,18.80
2015,07,02,02,16,18.80
2015,07,02,02,17,18.80
2015,07,02,02,18,18.80
2015,07,02,02,19,18.70
2015,07,02,02,20,18.70
2015,07,02,02,21,18.70
2015,07,02,02,22,18.70
2015,07,02,02,23,18.60
2015,07,02,02,24,18.60
2015,07,02,02,25,18.60
2015,07,02,02,26,18.60
2015,07,02,02,27,18.60
2015,07,02,02,28,18.50
2015,07,02,02,29,18.50
2015,07,02,02,30,18.50
2015,07,02,02,31,18.40
2015,07,02,02,32,18.40
2015,07,02,02,33,18.40
2015,07,02,02,34,18.40
2015,07,02,02,35,18.30
2015,07,02,02,36,18.30
2015,07,02,02,37,18.30
2015,07,02,02,38,18.30
2015,07,02,02,39,18.30
2015,07,02,02,40,18.20
2015,07,02,02,41,18.20
2015,07,02,02,42,18.20
2015,07,02,02,43,18.20
2015,07,02,02,44,18.20
2015,07,02,02,45,18.20
2015,07,02,02,46,18.30
2015,07,02,02,47,18.30
2015,07,02,02,48,18.30
2015,07,02,02,49,18.30
2015,07,02,02,50,18.40
2015,07,02,02,51,18.40
2015,07,02,02,52,18.40
2015,07,02,02,53,18.50
2015,07,02,02,54,18.50
2015,07,02,02,55,18.50
2015,07,02,02,56,18.50
2015,07,02,02,57,18.50
2015,07,02,02,58,18.50
2015,07,02,02,59,18.50
2015,07,02,03,00,18.50
2015,07,02,03,01,18.50
2015,07,02,03,02,18.50
2015,07,02,03,03,18.50
2015,07,02,03,04,18.50
2015,07,02,03,05,18.40
2015,07,02,03,06,18.40
2015,07,02,03,07,18.40
2015,07,02,03,08,18.40
2015,07,02,03,09,18.30
2015,07,02,03,10,18.30
2015,07,02,03,11,18.30
2015,07,02,03,12,18.20
2015,07,02,03,13,18.20
2015,07,02,03,14,18.20
2015,07,02,03,15,18.10
2015,07,02,03,16,18.10
2015,07,02,03,17,18.10
2015,07,02,03,18,18.10
2015,07,02,03,19,18.10
2015,07,02,03,20,18.10
2015,07,02,03,21,18.00
2015,07,02,03,22,18.00
2015,07,02,03,23,18.00
2015,07,02,03,24,18.00
2015,07,02,03,25,18.00
2015,07,02,03,26,18.00
2015,07,02,03,27,18.10
2015,07,02,03,28,18.10
2015,07,02,03,29,18.10
2015,07,02,03,30,18.10
2015,07,02,03,31,18.10
2015,07,02,03,32,18.10
2015,07,02,03,33,18.10
2015,07,02,03,34,18.10
2015,07,02,03,35,18.10
2015,07,02,03,36,18.10
2015,07,02,03,37,18.10
2015,07,02,03,38,18.10
2015,07,02,03,39,18.00
2015,07,02,03,40,18.00
2015,07,02,03,41,17.90
2015,07,02,03,42,17.90
2015,07,02,03,43,17.90
2015,07,02,03,44,17.90
2015,07,02,03,45,17.80
2015,07,02,03,46,17.80
2015,07,02,03,47,17.80
2015,07,02,03,48,17.80
2015,07,02,03,49,17.80
2015,07,02,03,50,17.80
2015,07,02,03,51,17.80
2015,07,02,03,52,17.80
2015,07,02,03,53,17.80
2015,07,02,03,54,17.80
2015,07,02,03,55,17.80
2015,07,02,03,56,17.80
2015,07,02,03,57,17.80
2015,07,02,03,58,17.80
2015,07,02,03,59,17.80
2015,07,02,04,00,17.70
2015,07,02,04,01,17.70
2015,07,02,04,02,17.70
2015,07,02,04,03,17.70
2015,07,02,04,04,17.60
2015,07,02,04,05,17.60
2015,07,02,04,06,17.60
2015,07,02,04,07,17.60
2015,07,02,04,08,17.60
2015,07,02,04,09,17.60
2015,07,02,04,10,17.50
2015,07,02,04,11,17.50
2015,07,02,04,12,17.40
2015,07,02,04,13,17.40
2015,07,02,04,14,17.40
2015,07,02,04,15,17.40
2015,07,02,04,16,17.40
2015,07,02,04,17,17.40
2015,07,02,04,18,17.40
2015,07,02,04,19,17.40
2015,07,02,04,20,17.40
2015,07,02,04,21,17.40
2015,07,02,04,22,17.40
2015,07,02,04,23,17.40
2015,07,02,04,24,17.40
2015,07,02,04,25,17.40
2015,07,02,04,26,17.40
2015,07,02,04,27,17.40
2015,07,02,04,28,17.40
2015,07,02,04,29,17.40
2015,07,02,04,30,17.50
2015,07,02,04,31,17.50
2015,07,02,04,32,17.50
2015,07,02,04,33,17.50
2015,07,02,04,34,17.50
2015,07,02,04,35,17.50
2015,07,02,04,36,17.50
2015,07,02,04,37,17.50
2015,07,02,04,38,17.50
2015,07,02,04,39,17.60
2015,07,02,04,40,17.60
2015,07,02,04,41,17.60
2015,07,02,04,42,17.60
2015,07,02,04,43,17.60
2015,07,02,04,44,17.60
2015,07,02,04,45,17.70
2015,07,02,04,46,17.70
2015,07,02,04,47,17.80
2015,07,02,04,48,17.90
2015,07,02,04,49,18.00
2015,07,02,04,50,18.10
2015,07,02,04,51,18.20
2015,07,02,04,52,18.30
2015,07,02,04,53,18.30
2015,07,02,04,54,18.40
2015,07,02,04,55,18.40
2015,07,02,04,56,18.40
2015,07,02,04,57,18.40
2015,07,02,04,58,18.40
2015,07,02,04,59,18.40
2015,07,02,05,00,18.30
2015,07,02,05,01,18.30
2015,07,02,05,02,18.30
2015,07,02,05,03,18.30
2015,07,02,05,04,18.20
2015,07,02,05,05,18.20
2015,07,02,05,06,18.10
2015,07,02,05,07,18.10
2015,07,02,05,08,18.10
2015,07,02,05,09,18.00
2015,07,02,05,10,18.00
2015,07,02,05,11,17.90
2015,07,02,05,12,17.90
2015,07,02,05,13,17.90
2015,07,02,05,14,17.80
2015,07,02,05,15,17.80
2015,07,02,05,16,17.70
2015,07,02,05,17,17.70
2015,07,02,05,18,17.70
2015,07,02,05,19,17.70
2015,07,02,05,20,17.60
2015,07,02,05,21,17.60
2015,07,02,05,22,17.50
2015,07,02,05,23,17.50
2015,07,02,05,24,17.40
2015,07,02,05,25,17.30
2015,07,02,05,26,17.20
2015,07,02,05,27,17.20
2015,07,02,05,28,17.10
2015,07,02,05,29,17.10
2015,07,02,05,30,17.00
2015,07,02,05,31,17.00
2015,07,02,05,32,16.90
2015,07,02,05,33,16.90
2015,07,02,05,34,16.80
2015,07,02,05,35,16.80
2015,07,02,05,36,16.70
2015,07,02,05,37,16.70
2015,07,02,05,38,16.70
2015,07,02,05,39,16.70
2015,07,02,05,40,16.70
2015,07,02,05,41,16.70
2015,07,02,05,42,16.70
2015,07,02,05,43,16.80
2015,07,02,05,44,16.80
2015,07,02,05,45,16.80
2015,07,02,05,46,16.80
2015,07,02,05,47,16.90
2015,07,02,05,48,16.90
2015,07,02,05,49,16.90
2015,07,02,05,50,16.90
2015,07,02,05,51,17.00
2015,07,02,05,52,17.00
2015,07,02,05,53,17.00
2015,07,02,05,54,17.00
2015,07,02,05,55,17.00
2015,07,02,05,56,17.10
2015,07,02,05,57,17.10
2015,07,02,05,58,17.10
2015,07,02,05,59,17.20
2015,07,02,06,00,17.20
2015,07,02,06,01,17.30
2015,07,02,06,02,17.30
2015,07,02,06,03,17.40
2015,07,02,06,04,17.40
2015,07,02,06,05,17.40
2015,07,02,06,06,17.40
2015,07,02,06,07,17.40
2015,07,02,06,08,17.40
2015,07,02,06,09,17.40
2015,07,02,06,10,17.50
2015,07,02,06,11,17.50
2015,07,02,06,12,17.50
2015,07,02,06,13,17.50
2015,07,02,06,14,17.50
2015,07,02,06,15,17.50
2015,07,02,06,16,17.50
2015,07,02,06,17,17.50
2015,07,02,06,18,17.60
2015,07,02,06,19,17.60
2015,07,02,06,20,17.60
2015,07,02,06,21,17.60
2015,07,02,06,22,17.60
2015,07,02,06,23,17.60
2015,07,02,06,24,17.60
2015,07,02,06,25,17.60
2015,07,02,06,26,17.60
2015,07,02,06,27,17.60
2015,07,02,06,28,17.60
2015,07,02,06,29,17.60
2015,07,02,06,30,17.60
2015,07,02,06,31,17.70
2015,07,02,06,32,17.70
2015,07,02,06,33,17.70
2015,07,02,06,34,17.70
2015,07,02,06,35,17.70
2015,07,02,06,36,17.80
2015,07,02,06,37,17.80
2015,07,02,06,38,17.80
2015,07,02,06,39,17.80
2015,07,02,06,40,17.90
2015,07,02,06,41,17.90
2015,07,02,06,42,17.90
2015,07,02,06,43,18.00
2015,07,02,06,44,18.10
2015,07,02,06,45,18.10
2015,07,02,06,46,18.20
2015,07,02,06,47,18.20
2015,07,02,06,48,18.30
2015,07,02,06,49,18.30
2015,07,02,06,50,18.30
2015,07,02,06,51,18.40
2015,07,02,06,52,18.40
2015,07,02,06,53,18.40
2015,07,02,06,54,18.50
2015,07,02,06,55,18.50
2015,07,02,06,56,18.60
2015,07,02,06,57,18.60
2015,07,02,06,58,18.60
2015,07,02,06,59,18.70
2015,07,02,07,00,18.80
2015,07,02,07,01,18.90
2015,07,02,07,02,18.90
2015,07,02,07,03,19.00
2015,07,02,07,04,19.20
2015,07,02,07,05,19.30
2015,07,02,07,06,19.30
2015,07,02,07,07,19.40
2015,07,02,07,08,19.50
2015,07,02,07,09,19.70
2015,07,02,07,10,19.80
2015,07,02,07,11,19.90
2015,07,02,07,12,20.00
2015,07,02,07,13,20.10
2015,07,02,07,14,20.20
2015,07,02,07,15,20.30
2015,07,02,07,16,20.30
2015,07,02,07,17,20.40
2015,07,02,07,18,20.40
2015,07,02,07,19,20.30
2015,07,02,07,20,20.30
2015,07,02,07,21,20.30
2015,07,02,07,22,20.30
2015,07,02,07,23,20.30
2015,07,02,07,24,20.30
2015,07,02,07,25,20.20
2015,07,02,07,26,20.20
2015,07,02,07,27,20.20
2015,07,02,07,28,20.20
2015,07,02,07,29,20.20
2015,07,02,07,30,20.20
2015,07,02,07,31,20.20
2015,07,02,07,32,20.30
2015,07,02,07,33,20.30
2015,07,02,07,34,20.40
2015,07,02,07,35,20.40
2015,07,02,07,36,20.50
2015,07,02,07,37,20.60
2015,07,02,07,38,20.70
2015,07,02,07,39,20.80
2015,07,02,07,40,20.90
2015,07,02,07,41,21.00
2015,07,02,07,42,21.00
2015,07,02,07,43,21.10
2015,07,02,07,44,21.20
2015,07,02,07,45,21.20
2015,07,02,07,46,21.30
2015,07,02,07,47,21.30
2015,07,02,07,48,21.40
2015,07,02,07,49,21.50
2015,07,02,07,50,21.50
2015,07,02,07,51,21.60
2015,07,02,07,52,21.70
2015,07,02,07,53,21.80
2015,07,02,07,54,21.80
2015,07,02,07,55,21.90
2015,07,02,07,56,22.00
2015,07,02,07,57,22.00
2015,07,02,07,58,22.00
2015,07,02,07,59,22.00
2015,07,02,08,00,21.90
2015,07,02,08,01,21.90
2015,07,02,08,02,21.90
2015,07,02,08,03,21.80
2015,07,02,08,04,21.80
2015,07,02,08,05,21.80
2015,07,02,08,06,21.80
2015,07,02,08,07,21.80
2015,07,02,08,08,21.80
2015,07,02,08,09,21.80
2015,07,02,08,10,21.80
2015,07,02,08,11,21.90
2015,07,02,08,12,22.00
2015,07,02,08,13,22.00
2015,07,02,08,14,22.10
2015,07,02,08,15,22.10
2015,07,02,08,16,22.10
2015,07,02,08,17,22.00
2015,07,02,08,18,22.00
2015,07,02,08,19,21.90
2015,07,02,08,20,21.90
2015,07,02,08,21,21.80
2015,07,02,08,22,21.80
2015,07,02,08,23,21.80
2015,07,02,08,24,21.80
2015,07,02,08,25,21.70
2015,07,02,08,26,21.70
2015,07,02,08,27,21.70
2015,07,02,08,28,21.60
2015,07,02,08,29,21.60
2015,07,02,08,30,21.60
2015,07,02,08,31,21.60
2015,07,02,08,32,21.60
2015,07,02,08,33,21.60
2015,07,02,08,34,21.70
2015,07,02,08,35,21.70
2015,07,02,08,36,21.70
2015,07,02,08,37,21.70
2015,07,02,08,38,21.70
2015,07,02,08,39,21.70
2015,07,02,08,40,21.80
2015,07,02,08,41,21.80
2015,07,02,08,42,21.90
2015,07,02,08,43,22.00
2015,07,02,08,44,22.10
2015,07,02,08,45,22.30
2015,07,02,08,46,22.40
2015,07,02,08,47,22.60
2015,07,02,08,48,22.70
2015,07,02,08,49,22.80
2015,07,02,08,50,23.00
2015,07,02,08,51,23.10
2015,07,02,08,52,23.30
2015,07,02,08,53,23.40
2015,07,02,08,54,23.50
2015,07,02,08,55,23.60
2015,07,02,08,56,23.70
2015,07,02,08,57,23.70
2015,07,02,08,58,23.80
2015,07,02,08,59,23.80
2015,07,02,09,00,23.90
2015,07,02,09,01,23.90
2015,07,02,09,02,23.90
2015,07,02,09,03,23.90
2015,07,02,09,04,24.00
2015,07,02,09,05,24.10
2015,07,02,09,06,24.10
2015,07,02,09,07,24.20
2015,07,02,09,08,24.20
2015,07,02,09,09,24.30
2015,07,02,09,10,24.10
2015,07,02,09,11,23.90
2015,07,02,09,12,23.60
2015,07,02,09,13,23.40
2015,07,02,09,14,23.10
2015,07,02,09,15,22.90
2015,07,02,09,16,22.80
2015,07,02,09,17,22.70
2015,07,02,09,18,22.50
2015,07,02,09,19,22.40
2015,07,02,09,20,22.30
2015,07,02,09,21,22.20
2015,07,02,09,22,22.00
2015,07,02,09,23,21.80
2015,07,02,09,24,21.70
2015,07,02,09,25,21.60
2015,07,02,09,26,21.60
2015,07,02,09,27,21.50
2015,07,02,09,28,21.50
2015,07,02,09,29,21.40
2015,07,02,09,30,21.40
2015,07,02,09,31,21.40
2015,07,02,09,32,21.40
2015,07,02,09,33,21.30
2015,07,02,09,34,21.30
2015,07,02,09,35,21.20
2015,07,02,09,36,21.00
2015,07,02,09,37,20.90
2015,07,02,09,38,20.80
2015,07,02,09,39,20.80
2015,07,02,09,40,20.80
2015,07,02,09,41,20.80
2015,07,02,09,42,20.80
2015,07,02,09,43,20.80
2015,07,02,09,44,20.80
2015,07,02,09,45,20.90
2015,07,02,09,46,20.90
2015,07,02,09,47,20.90
2015,07,02,09,48,21.00
2015,07,02,09,49,21.10
2015,07,02,09,50,21.10
2015,07,02,09,51,21.10
2015,07,02,09,52,21.10
2015,07,02,09,53,21.10
2015,07,02,09,54,21.20
2015,07,02,09,55,21.20
2015,07,02,09,56,21.30
2015,07,02,09,57,21.40
2015,07,02,09,58,21.50
2015,07,02,09,59,21.50
2015,07,02,10,00,21.60
2015,07,02,10,01,21.60
2015,07,02,10,02,21.70
2015,07,02,10,03,21.70
2015,07,02,10,04,21.70
2015,07,02,10,05,21.80
2015,07,02,10,06,21.80
2015,07,02,10,07,21.80
2015,07,02,10,08,21.80
2015,07,02,10,09,21.80
2015,07,02,10,10,21.80
2015,07,02,10,11,21.80
2015,07,02,10,12,21.70
2015,07,02,10,13,21.70
2015,07,02,10,14,21.70
2015,07,02,10,15,21.70
2015,07,02,10,16,21.80
2015,07,02,10,17,21.80
2015,07,02,10,18,21.80
2015,07,02,10,19,21.90
2015,07,02,10,20,21.90
2015,07,02,10,21,21.90
2015,07,02,10,22,22.00
2015,07,02,10,23,22.00
2015,07,02,10,24,22.10
2015,07,02,10,25,22.20
2015,07,02,10,26,22.30
2015,07,02,10,27,22.50
2015,07,02,10,28,22.50
2015,07,02,10,29,22.60
2015,07,02,10,30,22.60
2015,07,02,10,31,22.60
2015,07,02,10,32,22.60
2015,07,02,10,33,22.70
2015,07,02,10,34,22.70
2015,07,02,10,35,22.70
2015,07,02,10,36,22.70
2015,07,02,10,37,22.80
2015,07,02,10,38,22.80
2015,07,02,10,39,22.80
2015,07,02,10,40,22.80
2015,07,02,10,41,22.70
2015,07,02,10,42,22.70
2015,07,02,10,43,22.80
2015,07,02,10,44,22.80
2015,07,02,10,45,22.90
2015,07,02,10,46,23.00
2015,07,02,10,47,23.10
2015,07,02,10,48,23.20
2015,07,02,10,49,23.30
2015,07,02,10,50,23.40
2015,07,02,10,51,23.50
2015,07,02,10,52,23.60
2015,07,02,10,53,23.70
2015,07,02,10,54,23.80
2015,07,02,10,55,23.90
2015,07,02,10,56,24.10
2015,07,02,10,57,24.20
2015,07,02,10,58,24.40
2015,07,02,10,59,24.50
2015,07,02,11,00,24.70
2015,07,02,11,01,24.80
2015,07,02,11,02,24.80
2015,07,02,11,03,24.90
2015,07,02,11,04,24.90
2015,07,02,11,05,25.00
2015,07,02,11,06,25.00
2015,07,02,11,07,25.00
2015,07,02,11,08,25.00
2015,07,02,11,09,25.10
2015,07,02,11,10,25.10
2015,07,02,11,11,25.20
2015,07,02,11,12,25.30
2015,07,02,11,13,25.40
2015,07,02,11,14,25.60
2015,07,02,11,15,25.70
2015,07,02,11,16,25.80
2015,07,02,11,17,25.90
2015,07,02,11,18,26.00
2015,07,02,11,19,26.20
2015,07,02,11,20,26.30
2015,07,02,11,21,26.40
2015,07,02,11,22,26.60
2015,07,02,11,23,26.70
2015,07,02,11,24,26.80
2015,07,02,11,25,27.00
2015,07,02,11,26,27.10
2015,07,02,11,27,27.20
2015,07,02,11,28,27.30
2015,07,02,11,29,27.30
2015,07,02,11,30,27.40
2015,07,02,11,31,27.40
2015,07,02,11,32,27.40
2015,07,02,11,33,27.50
2015,07,02,11,34,27.60
2015,07,02,11,35,27.60
2015,07,02,11,36,27.70
2015,07,02,11,37,27.80
2015,07,02,11,38,27.70
2015,07,02,11,39,27.50
2015,07,02,11,40,27.20
2015,07,02,11,41,27.00
2015,07,02,11,42,26.80
2015,07,02,11,43,26.60
2015,07,02,11,44,26.50
2015,07,02,11,45,26.40
2015,07,02,11,46,26.20
2015,07,02,11,47,26.00
2015,07,02,11,48,25.80
2015,07,02,11,49,25.60
2015,07,02,11,50,25.60
2015,07,02,11,51,25.60
2015,07,02,11,52,25.60
2015,07,02,11,53,25.60
2015,07,02,11,54,25.60
2015,07,02,11,55,25.60
2015,07,02,11,56,25.60
2015,07,02,11,57,25.50
2015,07,02,11,58,25.50
2015,07,02,11,59,25.50
2015,07,02,12,00,25.60
2015,07,02,12,01,25.70
2015,07,02,12,02,25.80
2015,07,02,12,03,25.90
2015,07,02,12,04,25.90
2015,07,02,12,05,26.00
2015,07,02,12,06,26.10
2015,07,02,12,07,26.10
2015,07,02,12,08,25.90
2015,07,02,12,09,25.70
2015,07,02,12,10,25.60
2015,07,02,12,11,25.60
2015,07,02,12,12,25.50
2015,07,02,12,13,25.50
2015,07,02,12,14,25.50
2015,07,02,12,15,25.40
2015,07,02,12,16,25.30
2015,07,02,12,17,25.20
2015,07,02,12,18,25.10
2015,07,02,12,19,25.00
2015,07,02,12,20,24.90
2015,07,02,12,21,24.90
2015,07,02,12,22,25.00
2015,07,02,12,23,25.10
2015,07,02,12,24,25.20
2015,07,02,12,25,25.20
2015,07,02,12,26,25.20
2015,07,02,12,27,25.20
2015,07,02,12,28,25.20
2015,07,02,12,29,25.20
2015,07,02,12,30,25.00
2015,07,02,12,31,24.90
2015,07,02,12,32,24.80
2015,07,02,12,33,24.90
2015,07,02,12,34,25.00
2015,07,02,12,35,25.10
2015,07,02,12,36,25.30
2015,07,02,12,37,25.40
2015,07,02,12,38,25.50
2015,07,02,12,39,25.70
2015,07,02,12,40,25.80
2015,07,02,12,41,26.00
2015,07,02,12,42,26.10
2015,07,02,12,43,26.30
2015,07,02,12,44,26.50
2015,07,02,12,45,26.60
2015,07,02,12,46,26.70
2015,07,02,12,47,26.70
2015,07,02,12,48,26.70
2015,07,02,12,49,26.70
2015,07,02,12,50,26.70
2015,07,02,12,51,26.70
2015,07,02,12,52,26.70
2015,07,02,12,53,26.70
2015,07,02,12,54,26.70
2015,07,02,12,55,26.60
2015,07,02,12,56,26.50
2015,07,02,12,57,26.50
2015,07,02,12,58,26.60
2015,07,02,12,59,26.70
2015,07,02,13,00,26.80
2015,07,02,13,01,26.80
2015,07,02,13,02,26.80
2015,07,02,13,03,26.80
2015,07,02,13,04,26.80
2015,07,02,13,05,26.80
2015,07,02,13,06,26.80
2015,07,02,13,07,26.80
2015,07,02,13,08,26.90
2015,07,02,13,09,27.00
2015,07,02,13,10,27.10
2015,07,02,13,11,27.00
2015,07,02,13,12,26.90
2015,07,02,13,13,26.80
2015,07,02,13,14,26.80
2015,07,02,13,15,26.90
2015,07,02,13,16,27.00
2015,07,02,13,17,27.00
2015,07,02,13,18,27.10
2015,07,02,13,19,27.00
2015,07,02,13,20,26.90
2015,07,02,13,21,26.90
2015,07,02,13,22,26.90
2015,07,02,13,23,27.00
2015,07,02,13,24,27.10
2015,07,02,13,25,27.10
2015,07,02,13,26,27.20
2015,07,02,13,27,27.30
2015,07,02,13,28,27.40
2015,07,02,13,29,27.50
2015,07,02,13,30,27.60
2015,07,02,13,31,27.60
2015,07,02,13,32,27.70
2015,07,02,13,33,27.70
2015,07,02,13,34,27.90
2015,07,02,13,35,28.00
2015,07,02,13,36,28.20
2015,07,02,13,37,28.30
2015,07,02,13,38,28.30
2015,07,02,13,39,28.30
2015,07,02,13,40,28.40
2015,07,02,13,41,28.50
2015,07,02,13,42,28.60
2015,07,02,13,43,28.70
2015,07,02,13,44,28.90
2015,07,02,13,45,29.00
2015,07,02,13,46,29.00
2015,07,02,13,47,29.10
2015,07,02,13,48,29.20
2015,07,02,13,49,29.20
2015,07,02,13,50,29.10
2015,07,02,13,51,28.90
2015,07,02,13,52,28.70
2015,07,02,13,53,28.40
2015,07,02,13,54,28.20
2015,07,02,13,55,28.10
2015,07,02,13,56,28.00
2015,07,02,13,57,28.00
2015,07,02,13,58,27.90
2015,07,02,13,59,27.80
2015,07,02,14,00,27.90
2015,07,02,14,01,28.00
2015,07,02,14,02,28.10
2015,07,02,14,03,28.10
2015,07,02,14,04,28.10
2015,07,02,14,05,28.10
2015,07,02,14,06,28.10
2015,07,02,14,07,28.10
2015,07,02,14,08,28.10
2015,07,02,14,09,28.20
2015,07,02,14,10,28.30
2015,07,02,14,11,28.40
2015,07,02,14,12,28.40
2015,07,02,14,13,28.40
2015,07,02,14,14,28.50
2015,07,02,14,15,28.50
2015,07,02,14,16,28.50
2015,07,02,14,17,28.40
2015,07,02,14,18,28.40
2015,07,02,14,19,28.30
2015,07,02,14,20,28.30
2015,07,02,14,21,28.40
2015,07,02,14,22,28.50
2015,07,02,14,23,28.60
2015,07,02,14,24,28.70
2015,07,02,14,25,28.80
2015,07,02,14,26,28.90
2015,07,02,14,27,29.00
2015,07,02,14,28,29.10
2015,07,02,14,29,29.20
2015,07,02,14,30,29.30
2015,07,02,14,31,29.30
2015,07,02,14,32,29.30
2015,07,02,14,33,29.30
2015,07,02,14,34,29.30
2015,07,02,14,35,29.30
2015,07,02,14,36,29.30
2015,07,02,14,37,29.20
2015,07,02,14,38,29.20
2015,07,02,14,39,29.20
2015,07,02,14,40,29.20
2015,07,02,14,41,29.10
2015,07,02,14,42,29.20
2015,07,02,14,43,29.20
2015,07,02,14,44,29.30
2015,07,02,14,45,29.40
2015,07,02,14,46,29.40
2015,07,02,14,47,29.50
2015,07,02,14,48,29.50
2015,07,02,14,49,29.50
2015,07,02,14,50,29.60
2015,07,02,14,51,29.50
2015,07,02,14,52,29.40
2015,07,02,14,53,29.40
2015,07,02,14,54,29.40
2015,07,02,14,55,29.40
2015,07,02,14,56,29.40
2015,07,02,14,57,29.40
2015,07,02,14,58,29.50
2015,07,02,14,59,29.40
2015,07,02,15,00,29.20
2015,07,02,15,01,29.10
2015,07,02,15,02,29.00
2015,07,02,15,03,29.00
2015,07,02,15,04,29.00
2015,07,02,15,05,29.00
2015,07,02,15,06,29.00
2015,07,02,15,07,29.10
2015,07,02,15,08,29.20
2015,07,02,15,09,29.30
2015,07,02,15,10,29.30
2015,07,02,15,11,29.40
2015,07,02,15,12,29.40
2015,07,02,15,13,29.30
2015,07,02,15,14,29.30
2015,07,02,15,15,29.30
2015,07,02,15,16,29.20
2015,07,02,15,17,29.10
2015,07,02,15,18,29.00
2015,07,02,15,19,28.90
2015,07,02,15,20,28.80
2015,07,02,15,21,28.80
2015,07,02,15,22,28.80
2015,07,02,15,23,28.70
2015,07,02,15,24,28.60
2015,07,02,15,25,28.60
2015,07,02,15,26,28.70
2015,07,02,15,27,28.70
2015,07,02,15,28,28.70
2015,07,02,15,29,28.80
2015,07,02,15,30,28.70
2015,07,02,15,31,28.70
2015,07,02,15,32,28.70
2015,07,02,15,33,28.60
2015,07,02,15,34,28.40
2015,07,02,15,35,28.30
2015,07,02,15,36,28.30
2015,07,02,15,37,28.40
2015,07,02,15,38,28.60
2015,07,02,15,39,28.70
2015,07,02,15,40,28.80
2015,07,02,15,41,28.90
2015,07,02,15,42,29.00
2015,07,02,15,43,29.10
2015,07,02,15,44,29.10
2015,07,02,15,45,29.10
2015,07,02,15,46,29.10
2015,07,02,15,47,29.10
2015,07,02,15,48,29.20
2015,07,02,15,49,29.20
2015,07,02,15,50,29.30
2015,07,02,15,51,29.30
2015,07,02,15,52,29.30
2015,07,02,15,53,29.40
2015,07,02,15,54,29.50
2015,07,02,15,55,29.50
2015,07,02,15,56,29.50
2015,07,02,15,57,29.50
2015,07,02,15,58,29.60
2015,07,02,15,59,29.70
2015,07,02,16,00,29.70
2015,07,02,16,01,29.70
2015,07,02,16,02,29.70
2015,07,02,16,03,29.70
2015,07,02,16,04,29.70
2015,07,02,16,05,29.60
2015,07,02,16,06,29.50
2015,07,02,16,07,29.40
2015,07,02,16,08,29.40
2015,07,02,16,09,29.30
2015,07,02,16,10,29.30
2015,07,02,16,11,29.30
2015,07,02,16,12,29.30
2015,07,02,16,13,29.30
2015,07,02,16,14,29.30
2015,07,02,16,15,29.30
2015,07,02,16,16,29.30
2015,07,02,16,17,29.30
2015,07,02,16,18,29.20
2015,07,02,16,19,29.20
2015,07,02,16,20,29.10
2015,07,02,16,21,29.20
2015,07,02,16,22,29.20
2015,07,02,16,23,29.30
2015,07,02,16,24,29.30
2015,07,02,16,25,29.30
2015,07,02,16,26,29.20
2015,07,02,16,27,29.10
2015,07,02,16,28,29.10
2015,07,02,16,29,29.00
2015,07,02,16,30,29.00
2015,07,02,16,31,28.90
2015,07,02,16,32,28.80
2015,07,02,16,33,28.90
2015,07,02,16,34,28.90
2015,07,02,16,35,29.00
2015,07,02,16,36,29.00
2015,07,02,16,37,29.00
2015,07,02,16,38,29.00
2015,07,02,16,39,29.10
2015,07,02,16,40,29.20
2015,07,02,16,41,29.20
2015,07,02,16,42,29.30
2015,07,02,16,43,29.30
2015,07,02,16,44,29.30
2015,07,02,16,45,29.40
2015,07,02,16,46,29.40
2015,07,02,16,47,29.50
2015,07,02,16,48,29.50
2015,07,02,16,49,29.50
2015,07,02,16,50,29.40
2015,07,02,16,51,29.30
2015,07,02,16,52,29.30
2015,07,02,16,53,29.30
2015,07,02,16,54,29.30
2015,07,02,16,55,29.30
2015,07,02,16,56,29.30
2015,07,02,16,57,29.30
2015,07,02,16,58,29.30
2015,07,02,16,59,29.30
2015,07,02,17,00,29.30
2015,07,02,17,01,29.30
2015,07,02,17,02,29.30
2015,07,02,17,03,29.20
2015,07,02,17,04,29.10
2015,07,02,17,05,29.00
2015,07,02,17,06,28.80
2015,07,02,17,07,28.50
2015,07,02,17,08,28.30
2015,07,02,17,09,28.00
2015,07,02,17,10,27.90
2015,07,02,17,11,27.80
2015,07,02,17,12,27.70
2015,07,02,17,13,27.60
2015,07,02,17,14,27.60
2015,07,02,17,15,27.50
2015,07,02,17,16,27.40
2015,07,02,17,17,27.30
2015,07,02,17,18,27.30
2015,07,02,17,19,27.30